QPF
0.00 0.00 0.00 0.00 0.00 0.00 0.00 0.00 0.00 0.00 0.00 0.00 0.00 0.00 0.00 0.00 0.00 0.00 0.00 0.00 0.00 0.00 0.00 0.00 0.00 0.00 0.00 0.00 0.00 0.00 0.00 0.00
0.00 0.00 0.00 0.00 0.00 0.00 0.00 0.00 0.00 0.00 0.00 0.00 0.00 0.00 0.00 0.00 0.00 0.00 0.00 0.00 0.00 0.00 0.00 0.00 0.00 0.00 0.00 0.00 0.00 0.00 0.00 0.04
0.00 0.00 0.00 0.00 0.00 0.00 0.00 0.00 0.00 0.00 0.00 0.00 0.00 0.00 0.00 0.00 0.00 0.00 0.00 0.00 0.00 0.00 0.00 0.00 0.00 0.00 0.00 0.00 0.00 0.00 0.00 0.00
0.00 0.00 0.00 0.00 0.00 0.00 0.00 0.00 0.00 0.00 0.00 0.00 0.00 0.00 0.00 0.00 0.00 0.00 0.00 0.00 0.00 0.00 0.00 0.00 0.00 0.00 0.00 0.00 0.00 0.00 0.00 0.00
0.00 0.00 0.00 0.00 0.00 0.00 0.00 0.00 0.00 0.00 0.00 0.00 0.00 0.00 0.00 0.00 0.00 0.00 0.00 0.00 0.00 0.00 0.00 0.00 0.00 0.00 0.00 0.00 0.00 0.00 0.00 0.00
0.00 0.00 0.00 0.00 0.00 0.00 0.00 0.00 0.00 0.00 0.00 0.00 0.00 0.00 0.00 0.00 0.00 0.00 0.00 0.00 0.00 0.00 0.00 0.00 0.00 0.00 0.00 0.00 0.00 0.00 0.00 0.00
0.00 0.00 0.00 0.00 0.00 0.00 0.00 0.00 0.00 0.00 0.00 0.00 0.00 0.00 0.00 0.00 0.00 0.00 0.00 0.00 0.00 0.00 0.00 0.00 0.00 0.00 0.00 0.00 0.00 0.00 0.00 0.00
0.00 0.00 0.00 0.00 0.00 0.00 0.00 0.00 0.00 0.00 0.00 0.00 0.00 0.00 0.00 0.00 0.00 0.00 0.00 0.00 0.00 0.00 0.00 0.00 0.00 0.00 0.00 0.00 0.00 0.00 0.00 0.00
0.00 0.00 0.00 0.00 0.00 0.00 0.00 0.00 0.00 0.00 0.00 0.00 0.00 0.00 0.00 0.00 0.00 0.00 0.00 0.00 0.00 0.00 0.00 0.00 0.00 0.00 0.00 0.00 0.00 0.00 0.00 0.00
0.00 0.00 0.00 0.00 0.00 0.00 0.00 0.00 0.00 0.00 0.00 0.00 0.00 0.00 0.00 0.00 0.00 0.00 0.00 0.00 0.00 0.00 0.00 0.00 0.00 0.00 0.00 0.00 0.00 0.00 0.00 0.00
0.00 0.00 0.00 0.00 0.00 0.00 0.00 0.00 0.00 0.00 0.00 0.00 0.00 0.00 0.00 0.00 0.00 0.00 0.00 0.00 0.00 0.00 0.00 0.00 0.00 0.00 0.00 0.00 0.00 0.00 0.00 0.00
0.00 0.00 0.00 0.00 0.00 0.00 0.00 0.00 0.00 0.00 0.00 0.00 0.00 0.00 0.00 0.00 0.00 0.00 0.00 0.00 0.00 0.00 0.00 0.00 0.00 0.00 0.00 0.00 0.00 0.00 0.00 0.00
0.00 0.00 0.00 0.00 0.00 0.00 0.00 0.00 0.00 0.00 0.00 0.00 0.00 0.00 0.00 0.00 0.00 0.00 0.00 0.00 0.00 0.00 0.00 0.00 0.00 0.00 0.00 0.00 0.00 0.00 0.00 0.00
0.00 0.00 0.00 0.00 0.00 0.00 0.00 0.00 0.00 0.00 0.00 0.00 0.00 0.00 0.00 0.00 0.00 0.00 0.00 0.00 0.00 0.00 0.00 0.00 0.00 0.00 0.00 0.00 0.00 0.00 0.00 0.00
0.00 0.00 0.00 0.00 0.00 0.00 0.00 0.00 0.00 0.00 0.00 0.00 0.00 0.00 0.00 0.00 0.00 0.00 0.00 0.00 0.00 0.00 0.00 0.00 0.00 0.00 0.00 0.00 0.00 0.00 0.00 0.00
0.00 0.00 0.00 0.00 0.00 0.00 0.00 0.00 0.00 0.00 0.00 0.00 0.00 0.00 0.00 0.00 0.00 0.00 0.00 0.00 0.00 0.00 0.00 0.00 0.00 0.00 0.00 0.00 0.00 0.00 0.00 0.00
0.00 0.00 0.00 0.00 0.00 0.00 0.00 0.00 0.00 0.00 0.00 0.00 0.00 0.00 0.00 0.00 0.00 0.00 0.00 0.00 0.00 0.00 0.00 0.00 0.00 0.00 0.00 0.00 0.00 0.00 0.00 0.00
0.00 0.00 0.00 0.00 0.00 0.00 0.00 0.00 0.00 0.00 0.00 0.00 0.00 0.00 0.00 0.00 0.00 0.00 0.00 0.00 0.00 0.00 0.00 0.00 0.00 0.00 0.00 0.00 0.00 0.00 0.00 0.00
0.00 0.00 0.00 0.00 0.00 0.00 0.00 0.00 0.00 0.00 0.00 0.00 0.00 0.00 0.00 0.00 0.00 0.00 0.00 0.00 0.00 0.00 0.00 0.00 0.00 0.00 0.00 0.00 0.00 0.00 0.00 0.00
0.00 0.00 0.00 0.00 0.00 0.00 0.00 0.00 0.00 0.00 0.00 0.00 0.00 0.00 0.00 0.00 0.00 0.00 0.00 0.00 0.00 0.00 0.00 0.00 0.00 0.00 0.00 0.00 0.00 0.00 0.00 0.00
MSLP
1022.01 1022.57 1023.22 1023.36 1023.43 1023.49 1023.53 1023.51 1023.47 1023.41 1023.31 1023.23 1023.24 1023.04 1022.99 1022.91 1022.78 1022.57 1022.26 1021.94 1021.69 1021.41 1021.09 1020.77 1020.54 1020.29 1020.05 1019.60 1019.12 1018.73 1018.65 1019.23
1022.06 1022.44 1022.87 1023.20 1023.52 1023.70 1023.62 1023.60 1023.60 1023.47 1023.26 1023.11 1023.31 1023.35 1022.96 1023.02 1022.83 1022.70 1022.39 1022.14 1021.86 1021.45 1021.11 1020.79 1020.39 1020.03 1019.92 1019.56 1019.27 1018.85 1018.52 1019.34
1022.20 1022.70 1022.85 1023.00 1023.22 1023.56 1023.71 1023.72 1023.80 1023.68 1023.40 1023.17 1023.10 1023.09 1022.87 1022.86 1022.87 1022.69 1022.38 1022.08 1022.03 1021.58 1021.17 1020.81 1020.36 1019.94 1019.99 1019.71 1019.46 1019.00 1019.09 1019.88
1022.50 1022.79 1022.92 1022.76 1022.87 1023.16 1023.20 1023.47 1023.77 1023.73 1023.55 1023.47 1023.29 1023.18 1022.99 1022.90 1022.74 1022.73 1022.47 1022.04 1021.89 1021.86 1021.52 1021.22 1021.16 1020.75 1020.43 1020.09 1019.90 1019.65 1019.70 1020.08
1022.68 1023.30 1023.15 1023.02 1022.98 1022.92 1023.24 1023.64 1023.84 1023.96 1023.92 1023.76 1023.65 1023.53 1023.25 1023.03 1022.83 1022.70 1022.58 1022.51 1022.33 1022.03 1021.88 1021.65 1021.49 1021.43 1021.29 1020.99 1020.61 1020.25 1020.11 1020.65
1022.79 1023.38 1023.60 1023.39 1023.16 1023.27 1023.52 1023.81 1024.08 1024.31 1024.27 1024.07 1024.04 1024.06 1023.90 1023.70 1023.45 1023.30 1023.16 1022.90 1022.83 1022.67 1022.32 1022.03 1021.71 1021.50 1021.51 1021.40 1021.16 1020.84 1020.58 1020.94
1022.91 1023.37 1023.62 1023.45 1023.61 1023.86 1024.02 1024.22 1024.41 1024.57 1024.75 1024.65 1024.44 1024.45 1024.35 1024.19 1024.07 1023.84 1023.77 1023.60 1023.32 1023.14 1022.82 1022.46 1022.19 1021.86 1021.59 1021.46 1021.31 1021.23 1021.11 1020.94
1023.04 1023.46 1023.71 1023.83 1024.00 1024.19 1024.31 1024.42 1024.63 1024.93 1025.12 1025.05 1024.87 1024.82 1024.66 1024.55 1024.62 1024.34 1024.12 1023.98 1023.83 1023.56 1023.36 1023.05 1022.68 1022.28 1022.02 1021.65 1021.24 1021.17 1021.17 1021.20
1023.01 1023.56 1023.85 1024.10 1024.15 1024.06 1024.27 1024.34 1024.71 1025.08 1025.31 1025.35 1025.28 1025.15 1024.90 1024.67 1024.91 1024.87 1024.51 1024.38 1024.39 1024.16 1023.97 1023.59 1023.19 1022.70 1022.54 1021.93 1021.46 1021.12 1021.08 1021.10
1022.92 1023.02 1023.89 1023.97 1024.09 1024.16 1024.38 1024.50 1024.69 1024.91 1025.20 1025.48 1025.54 1025.47 1025.23 1025.13 1025.31 1025.34 1024.94 1024.99 1025.06 1025.03 1024.85 1024.50 1024.06 1023.54 1023.23 1022.58 1022.00 1021.57 1021.08 1020.85
1022.65 1023.24 1023.73 1024.03 1024.10 1024.23 1024.58 1024.66 1024.79 1024.91 1025.11 1025.56 1025.72 1025.86 1025.62 1025.40 1025.61 1025.78 1025.47 1025.59 1025.62 1025.61 1025.52 1025.14 1024.76 1024.18 1023.77 1023.16 1022.40 1021.81 1021.11 1020.91
1022.42 1023.09 1023.63 1023.97 1024.17 1024.45 1024.68 1024.71 1024.75 1024.87 1025.29 1025.73 1025.91 1026.04 1026.03 1025.95 1025.91 1026.19 1026.04 1026.01 1026.17 1026.19 1026.10 1025.69 1025.32 1024.90 1024.33 1023.80 1022.88 1021.93 1021.22 1021.53
1022.31 1022.84 1023.47 1023.92 1024.23 1024.27 1024.37 1024.58 1024.80 1025.03 1025.51 1025.83 1026.18 1026.43 1026.43 1026.59 1026.52 1026.59 1026.64 1026.54 1026.79 1026.63 1026.66 1026.38 1025.82 1025.31 1024.94 1024.40 1023.34 1022.61 1022.39 1022.45
1021.99 1022.54 1023.19 1023.71 1023.86 1023.77 1023.86 1024.16 1024.61 1024.96 1025.77 1026.27 1026.46 1026.70 1026.83 1026.89 1027.08 1027.13 1027.16 1027.07 1027.13 1027.16 1027.11 1027.04 1026.57 1026.04 1025.87 1025.11 1024.35 1023.30 1023.13 1023.04
1021.51 1022.13 1022.77 1023.40 1023.39 1023.45 1023.58 1023.87 1024.53 1025.20 1025.94 1026.42 1026.75 1026.92 1027.11 1027.31 1027.44 1027.55 1027.51 1027.44 1027.58 1027.52 1027.54 1027.47 1027.28 1026.79 1026.40 1026.24 1025.70 1025.12 1024.57 1023.31
1021.19 1021.79 1022.40 1023.02 1023.05 1023.29 1023.66 1023.99 1024.39 1024.70 1025.42 1026.18 1026.93 1027.15 1027.40 1027.52 1027.72 1027.78 1027.82 1027.72 1027.84 1027.87 1027.69 1027.86 1027.63 1027.41 1027.05 1026.71 1026.57 1026.27 1025.80 1024.52
1020.78 1021.33 1021.87 1022.46 1022.95 1023.09 1023.41 1023.75 1024.01 1024.56 1025.46 1026.22 1026.83 1027.24 1027.46 1027.55 1027.71 1027.88 1027.98 1028.06 1028.08 1028.06 1028.10 1028.12 1027.96 1027.81 1027.69 1027.44 1027.17 1026.69 1026.26 1025.98
1020.42 1020.99 1021.53 1022.11 1022.72 1023.11 1023.49 1023.78 1023.93 1024.48 1025.30 1026.06 1026.47 1026.88 1027.24 1027.47 1027.61 1027.86 1027.96 1028.15 1028.17 1028.21 1028.26 1028.28 1028.10 1027.94 1027.86 1027.80 1027.61 1027.29 1026.84 1026.53
1020.22 1020.88 1021.26 1021.81 1022.47 1023.01 1023.40 1023.56 1023.83 1024.21 1024.96 1025.71 1026.02 1026.45 1026.79 1027.52 1027.68 1027.94 1028.07 1028.14 1028.16 1028.22 1028.34 1028.30 1028.02 1027.96 1027.98 1027.92 1027.66 1027.45 1027.05 1026.73
1019.56 1020.61 1021.23 1021.62 1022.26 1022.87 1023.41 1023.69 1024.03 1024.40 1024.73 1025.41 1025.95 1026.43 1027.01 1027.37 1027.78 1028.03 1028.13 1028.08 1028.04 1028.03 1028.07 1028.04 1027.85 1027.78 1027.61 1027.52 1027.33 1027.14 1026.78 1026.57
Thickness
5678 5675 5670 5668 5668 5666 5665 5663 5663 5662 5660 5659 5658 5658 5656 5655 5655 5655 5655 5656 5656 5657 5658 5659 5660 5660 5660 5663 5665 5667 5666 5662
5679 5676 5672 5670 5667 5665 5665 5664 5662 5661 5661 5660 5657 5654 5655 5653 5653 5653 5654 5654 5654 5656 5656 5657 5659 5660 5659 5660 5660 5662 5661 5659
5679 5675 5673 5671 5669 5666 5664 5662 5660 5659 5658 5657 5656 5654 5654 5653 5651 5651 5651 5652 5651 5652 5653 5654 5656 5657 5656 5655 5655 5653 5654 5650
5677 5675 5673 5672 5670 5667 5665 5662 5658 5656 5655 5654 5653 5652 5652 5651 5651 5649 5649 5649 5649 5648 5648 5648 5647 5648 5648 5648 5647 5646 5647 5642
5675 5670 5670 5670 5669 5668 5664 5659 5656 5653 5651 5650 5648 5648 5649 5649 5648 5647 5646 5643 5642 5642 5640 5640 5640 5640 5639 5639 5638 5638 5637 5633
5673 5668 5666 5666 5666 5664 5660 5656 5652 5649 5647 5646 5644 5643 5642 5641 5641 5640 5638 5638 5636 5635 5635 5635 5634 5632 5630 5629 5628 5627 5626 5627
5670 5666 5663 5663 5661 5658 5655 5651 5648 5645 5641 5639 5639 5636 5635 5633 5632 5631 5629 5628 5628 5627 5627 5626 5626 5625 5623 5622 5620 5618 5616 5613
5667 5663 5660 5658 5655 5652 5650 5647 5643 5639 5636 5634 5632 5630 5629 5627 5624 5623 5622 5620 5618 5618 5617 5616 5616 5616 5615 5614 5613 5610 5607 5603
5664 5660 5657 5654 5652 5650 5647 5645 5640 5635 5630 5627 5624 5623 5623 5621 5617 5614 5613 5610 5608 5607 5604 5604 5604 5603 5602 5604 5604 5603 5601 5596
5664 5661 5654 5652 5650 5647 5644 5640 5636 5632 5627 5622 5618 5616 5614 5612 5607 5604 5602 5599 5595 5592 5590 5589 5589 5589 5588 5590 5591 5591 5590 5590
5663 5657 5653 5649 5647 5644 5638 5634 5631 5627 5623 5617 5611 5606 5605 5603 5598 5594 5591 5587 5583 5578 5574 5573 5573 5573 5574 5575 5577 5580 5581 5578
5663 5656 5651 5646 5643 5638 5633 5630 5626 5622 5616 5609 5603 5598 5595 5593 5588 5582 5579 5575 5569 5564 5560 5558 5557 5558 5558 5559 5562 5565 5571 5567
5660 5655 5648 5642 5637 5634 5630 5624 5621 5616 5608 5602 5595 5590 5585 5581 5576 5570 5565 5562 5555 5551 5546 5543 5543 5544 5544 5545 5549 5547 5547 5545
5660 5654 5646 5639 5635 5633 5629 5623 5616 5610 5599 5591 5586 5580 5576 5570 5564 5558 5552 5547 5543 5538 5533 5528 5527 5527 5524 5528 5530 5540 5530 5523
5659 5652 5645 5637 5633 5629 5624 5618 5609 5600 5591 5582 5575 5570 5565 5558 5551 5546 5540 5536 5530 5525 5520 5516 5512 5512 5509 5505 5505 5506 5513 5518
5656 5649 5642 5634 5629 5623 5615 5607 5599 5595 5586 5575 5564 5558 5552 5547 5540 5534 5528 5524 5519 5513 5509 5504 5501 5498 5497 5495 5489 5487 5485 5499
5654 5648 5641 5633 5623 5619 5610 5603 5595 5588 5575 5563 5555 5546 5541 5536 5528 5522 5516 5511 5507 5502 5497 5492 5489 5487 5483 5482 5480 5479 5477 5473
5650 5643 5636 5628 5618 5610 5603 5594 5587 5578 5567 5554 5548 5540 5533 5528 5517 5512 5506 5501 5496 5491 5486 5481 5480 5478 5473 5469 5467 5465 5465 5461
5646 5636 5630 5623 5613 5604 5596 5589 5582 5571 5561 5551 5543 5534 5527 5519 5512 5504 5496 5490 5486 5482 5478 5473 5471 5467 5463 5458 5455 5451 5448 5447
5645 5632 5623 5616 5606 5598 5588 5580 5571 5563 5556 5544 5535 5527 5514 5508 5499 5492 5486 5481 5477 5473 5469 5464 5459 5455 5452 5448 5443 5439 5436 5431